Location: C.E.K. Mees Observatory
(42.7003°N, 77.4088°W)
Time: 01:31:12
(UTC-05:00)

Tiangong 1 - Pass Details

Date: 09 October 2017
Orbit: 275 x 302 km, 42.8° (Epoch: 14 December)

Event Time Altitude Azimuth Distance (km) Brightness Sun altitude
Rises 20:27:13 0° 274° (W) 2,060 6.3 -21.1°
Reaches altitude 10° 20:29:14 10° 274° (W) 1,214 4.7 -21.4°
Enters shadow 20:30:49 30° 275° (W) 588 2.6 -21.7°
